EW4971 Weather Reports


Display with metric or nautical units.
time (UTC)temp
F
wind
direction
speed
MPH
gust
MPH
rain 1hr
in
rain 24hr
in
rain mn
in
humidity
%
barometer
mb
20260505153008 0 17 0.0 0.0 0.00 0.00 0.00 1015.5
20260505151503 0 355 0.0 0.0 0.00 0.00 0.00 1015.3
20260505124521 0 5 0.0 0.0 0.00 0.00 0.00 1014.5
20260505123017 0 5 0.0 0.0 0.00 0.00 0.00 1014.6
20260505121513 0 5 0.0 0.0 0.00 0.00 0.00 1014.7
20260505120009 0 5 0.0 0.0 0.00 0.00 0.00 1014.7
20260505114503 0 5 0.0 0.0 0.00 0.00 0.00 1014.5
20260505113059 0 5 0.0 0.0 0.00 0.00 0.00 1014.6
20260505111555 0 5 0.0 0.0 0.00 0.00 0.00 1014.5
20260505101542 0 5 0.0 0.0 0.00 0.00 0.00 1014.4
20260505100033 0 5 0.0 0.0 0.00 0.00 0.00 1014.6
20260505094530 0 355 0.0 0.0 0.00 0.00 0.00 1014.7
20260505093023 0 355 0.0 0.0 0.00 0.00 0.00 1014.6
20260505091519 0 360 0.0 0.0 0.00 0.00 0.00 1014.8
20260505090014 0 5 0.0 0.0 0.00 0.00 0.00 1015.0
20260505084512 0 5 0.0 0.0 0.00 0.00 0.00 1014.9
20260505083005 0 5 0.0 0.0 0.00 0.00 0.00 1015.0
20260505081502 0 5 0.0 0.0 0.00 0.00 0.00 1015.1
20260505080106 0 9 0.0 0.0 0.00 0.00 0.00 1015.2
20260505074552 0 13 0.0 0.0 0.00 0.00 0.00 1015.2
20260505073052 0 13 0.0 0.0 0.00 0.00 0.00 1015.0
20260505071544 0 53 0.0 0.0 0.00 0.00 0.00 1015.0
20260505070049 0 53 0.0 0.0 0.00 0.00 0.00 1015.0
20260505064539 0 53 0.0 0.0 0.00 0.00 0.00 1014.9
20260505063038 0 74 0.0 0.0 0.00 0.00 0.00 1014.8
20260505061637 0 79 0.0 0.0 0.00 0.00 0.00 1014.8
20260505060037 0 101 0.0 0.0 0.00 0.00 0.00 1014.9
20260505054539 0 74 0.0 0.0 0.00 0.00 0.00 1015.0
20260505053036 0 74 0.0 0.0 0.00 0.00 0.00 1015.1
20260505051536 0 71 0.0 0.0 0.00 0.00 0.00 1015.2
20260505041549 0 238 0.0 0.0 0.00 0.00 0.00 1014.7
20260505040042 0 238 0.0 0.0 0.00 0.00 0.00 1014.4
20260505034635 0 251 0.0 0.0 0.00 0.00 0.00 1014.2
20260505033033 0 257 0.0 0.0 0.00 0.00 0.00 1014.0
20260505031540 0 247 0.0 0.0 0.00 0.00 0.00 1014.1
20260505030032 0 220 0.0 0.0 0.00 0.00 0.00 1014.2
20260505024533 0 223 0.0 0.0 0.00 0.00 0.00 1014.1
20260505023030 0 269 0.0 0.0 0.00 0.00 0.00 1013.9
20260505021533 0 254 0.0 0.0 0.00 0.00 0.00 1014.0
20260505020026 0 233 0.0 0.0 0.00 0.00 0.00 1013.9
20260505014526 0 254 0.0 0.0 0.00 0.00 0.00 1014.0
20260505013016 0 235 0.0 0.0 0.00 0.00 0.00 1014.1
20260505011512 0 306 0.0 0.0 0.00 0.00 0.00 1014.3
20260505010009 0 0.0 0.0 0.00 0.00 0.00 1014.4
20260505004502 0 0.0 0.0 0.00 0.00 0.00 1014.5
20260505003059 0 0.0 0.0 0.00 0.00 0.00 1014.5
20260505001557 0 0.0 0.0 0.00 0.00 0.00 1014.5
20260505000106 0 0.0 0.0 0.00 0.00 0.00 1014.3
20260504234549 0 0.0 0.0 0.00 0.00 0.00 1014.4
20260504233103 0 0.0 0.0 0.00 0.00 0.00 1014.5
20260504231544 0 0.0 0.0 0.00 0.00 0.00 1014.5
20260504230041 0 0.0 0.0 0.00 0.00 0.00 1014.6
20260504224539 0 0.0 0.0 0.00 0.00 0.00 1014.6
20260504223052 0 0.0 0.0 0.00 0.00 0.00 1014.7
20260504221528 0 0.0 0.0 0.00 0.00 0.00 1014.9
20260504220024 0 0.0 0.0 0.00 0.00 0.00 1015.0
20260504214524 0 209 0.0 0.0 0.00 0.00 0.00 1015.1
20260504213032 0 288 0.0 0.0 0.00 0.00 0.00 1015.2
20260504211524 0 311 0.0 0.0 0.00 0.00 0.00 1015.5
20260504210018 0 250 0.0 0.0 0.00 0.00 0.00 1015.5
20260504204533 0 253 0.0 0.0 0.00 0.00 0.00 1015.4
20260504203021 0 200 0.0 0.0 0.00 0.00 0.00 1015.6
20260504201515 0 257 0.0 0.0 0.00 0.00 0.00 1015.7
20260504200011 0 265 0.0 0.0 0.00 0.00 0.00 1015.8
20260504194506 0 252 0.0 0.0 0.00 0.00 0.00 1015.8
20260504193001 0 223 0.0 0.0 0.00 0.00 0.00 1015.8
20260504191601 0 209 0.0 0.0 0.00 0.00 0.00 1015.9
20260504190053 0 262 0.0 0.0 0.00 0.00 0.00 1015.8
20260504184548 0 184 0.0 0.0 0.00 0.00 0.00 1015.9
20260504183043 0 230 0.0 0.0 0.00 0.00 0.00 1016.0
20260504181544 0 216 0.0 0.0 0.00 0.00 0.00 1015.9
20260504180034 0 173 0.0 0.0 0.00 0.00 0.00 1015.8
20260504174529 0 146 0.0 0.0 0.00 0.00 0.00 1015.5
20260504173028 0 196 0.0 0.0 0.00 0.00 0.00 1015.5
20260504171525 0 175 0.0 0.0 0.00 0.00 0.00 1015.4